When you browse on this site, cookies collect data to enhance your experience and personalize the content and advertising you see.
Visit our Privacy Policy to learn more. By continuing to use the site, you agree to this use of cookies and data.
  • In Latvia
  • List of Countries
  • For 7 days
  • Water Temperature
  • Satellite Maps
  • Weather Map
  • Weather Widgets
  • user-avatar
    Login

    Hourly Weather Natitingou

    Today, 18 January, Friday

    Time Temperature Precipitation Wind Pressure Humidity
    00:00 +27°C° 0 mm 1 mps 717 mmHg 13%
    01:00 +27°C° 0 mm 2 mps 717 mmHg 13%
    02:00 +27°C° 0 mm 2 mps 717 mmHg 14%
    03:00 +26°C° 0 mm 2 mps 717 mmHg 14%
    04:00 +26°C° 0 mm 2 mps 717 mmHg 14%
    05:00 +26°C° 0 mm 2 mps 717 mmHg 14%
    06:00 +26°C° 0 mm 2 mps 717 mmHg 14%
    07:00 +28°C° 0 mm 2 mps 718 mmHg 13%
    08:00 +30°C° 0 mm 2 mps 718 mmHg 11%
    09:00 +32°C° 0 mm 2 mps 719 mmHg 10%
    10:00 +35°C° 0 mm 2 mps 718 mmHg 10%
    11:00 +37°C° 0 mm 2 mps 718 mmHg 9%
    12:00 +39°C° 0 mm 2 mps 718 mmHg 8%
    13:00 +40°C° 0 mm 2 mps 717 mmHg 8%
    14:00 +40°C° 0 mm 2 mps 717 mmHg 9%
    15:00 +40°C° 0 mm 2 mps 716 mmHg 9%
    16:00 +37°C° 0 mm 1 mps 716 mmHg 10%
    17:00 +35°C° 0 mm 1 mps 716 mmHg 12%
    18:00 +33°C° 0 mm 1 mps 716 mmHg 14%
    19:00 +33°C° 0 mm 1 mps 716 mmHg 14%
    20:00 +32°C° 0 mm 1 mps 717 mmHg 15%
    21:00 +31°C° 0 mm 1 mps 717 mmHg 16%
    22:00 +30°C° 0 mm 1 mps 717 mmHg 17%
    23:00 +30°C° 0 mm 1 mps 717 mmHg 17%

    Tomorrow, 19 January, Saturday

    Time Temperature Precipitation Wind Pressure Humidity
    00:00 +29°C° 0 mm 1 mps 717 mmHg 18%
    01:00 +29°C° 0 mm 1 mps 717 mmHg 20%
    02:00 +28°C° 0 mm 1 mps 717 mmHg 22%
    03:00 +28°C° 0 mm 1 mps 716 mmHg 24%
    04:00 +27°C° 0 mm 2 mps 716 mmHg 31%
    05:00 +27°C° 0 mm 2 mps 717 mmHg 39%
    06:00 +27°C° 0 mm 2 mps 717 mmHg 47%
    07:00 +28°C° 0 mm 3 mps 717 mmHg 48%
    08:00 +30°C° 0 mm 3 mps 718 mmHg 50%
    09:00 +32°C° 0 mm 4 mps 719 mmHg 51%
    10:00 +34°C° 0 mm 3 mps 719 mmHg 44%
    11:00 +36°C° 0 mm 3 mps 718 mmHg 36%
    12:00 +38°C° 0 mm 3 mps 718 mmHg 28%
    13:00 +39°C° 0 mm 2 mps 717 mmHg 26%
    14:00 +39°C° 0 mm 2 mps 717 mmHg 23%
    15:00 +40°C° 0 mm 2 mps 716 mmHg 21%
    16:00 +38°C° 0 mm 2 mps 716 mmHg 23%
    17:00 +36°C° 0 mm 1 mps 716 mmHg 25%
    18:00 +35°C° 0 mm 1 mps 716 mmHg 28%
    19:00 +34°C° 0 mm 1 mps 717 mmHg 29%
    20:00 +34°C° 0 mm 1 mps 717 mmHg 30%
    21:00 +33°C° 0 mm 1 mps 718 mmHg 32%
    22:00 +33°C° 0.3 mm 1 mps 718 mmHg 35%
    23:00 +32°C° 0.3 mm 1 mps 718 mmHg 38%

    Day after tomorrow, 20 January, Sunday

    Time Temperature Precipitation Wind Pressure Humidity
    00:00 +31°C° 0.3 mm 2 mps 718 mmHg 41%
    01:00 +31°C° 0 mm 2 mps 717 mmHg 40%
    02:00 +30°C° 0 mm 2 mps 717 mmHg 39%
    03:00 +30°C° 0 mm 2 mps 717 mmHg 39%
    04:00 +29°C° 0 mm 2 mps 717 mmHg 32%
    05:00 +29°C° 0 mm 1 mps 718 mmHg 26%
    06:00 +28°C° 0 mm 1 mps 718 mmHg 20%
    07:00 +29°C° 0 mm 1 mps 719 mmHg 17%
    08:00 +28°C° 0 mm 0 mps 720 mmHg 14%
    09:00 +30°C° 0 mm 0 mps 720 mmHg 11%
    10:00 +33°C° 0 mm 1 mps 720 mmHg 10%
    11:00 +35°C° 0 mm 1 mps 720 mmHg 9%
    12:00 +37°C° 0 mm 1 mps 719 mmHg 7%
    13:00 +39°C° 0 mm 1 mps 718 mmHg 9%
    14:00 +39°C° 0 mm 1 mps 718 mmHg 10%
    15:00 +39°C° 0 mm 1 mps 717 mmHg 11%
    16:00 +37°C° 0 mm 1 mps 717 mmHg 13%
    17:00 +35°C° 0 mm 1 mps 717 mmHg 14%
    18:00 +34°C° 0 mm 2 mps 717 mmHg 16%
    19:00 +32°C° 0 mm 2 mps 717 mmHg 17%
    20:00 +31°C° 0 mm 2 mps 718 mmHg 17%
    21:00 +30°C° 0 mm 2 mps 718 mmHg 18%
    22:00 +30°C° 0 mm 1 mps 718 mmHg 18%
    23:00 +29°C° 0 mm 1 mps 718 mmHg 19%

    21 January, Monday

    Time Temperature Precipitation Wind Pressure Humidity
    00:00 +28°C° 0 mm 1 mps 718 mmHg 19%
    01:00 +27°C° 0 mm 1 mps 717 mmHg 19%
    02:00 +27°C° 0 mm 1 mps 717 mmHg 19%
    03:00 +24°C° 0 mm 0 mps 717 mmHg 19%
    04:00 +23°C° 0 mm 0 mps 717 mmHg 19%
    05:00 +25°C° 0 mm 1 mps 717 mmHg 18%
    06:00 +24°C° 0 mm 1 mps 718 mmHg 17%
    07:00 +27°C° 0 mm 1 mps 718 mmHg 14%
    08:00 +29°C° 0 mm 2 mps 719 mmHg 12%
    09:00 +31°C° 0 mm 2 mps 720 mmHg 9%
    10:00 +35°C° 0 mm 2 mps 720 mmHg 9%
    11:00 +37°C° 0 mm 2 mps 719 mmHg 8%
    12:00 +39°C° 0 mm 1 mps 719 mmHg 8%
    13:00 +39°C° 0 mm 1 mps 718 mmHg 8%
    14:00 +40°C° 0 mm 1 mps 717 mmHg 8%
    15:00 +40°C° 0 mm 1 mps 716 mmHg 9%
    16:00 +37°C° 0 mm 1 mps 716 mmHg 10%
    17:00 +35°C° 0 mm 1 mps 716 mmHg 11%
    18:00 +33°C° 0 mm 1 mps 716 mmHg 13%
    19:00 +32°C° 0 mm 1 mps 717 mmHg 13%
    20:00 +31°C° 0 mm 1 mps 717 mmHg 14%
    21:00 +30°C° 0 mm 1 mps 718 mmHg 14%
    22:00 +29°C° 0 mm 1 mps 718 mmHg 15%
    23:00 +29°C° 0 mm 2 mps 717 mmHg 15%

    22 January, Tuesday

    Time Temperature Precipitation Wind Pressure Humidity
    00:00 +28°C° 0 mm 2 mps 717 mmHg 15%
    01:00 +28°C° 0 mm 2 mps 717 mmHg 15%
    02:00 +27°C° 0 mm 2 mps 716 mmHg 14%
    03:00 +26°C° 0 mm 2 mps 716 mmHg 14%
    04:00 +26°C° 0 mm 2 mps 716 mmHg 13%
    05:00 +25°C° 0 mm 2 mps 717 mmHg 12%
    06:00 +25°C° 0 mm 2 mps 717 mmHg 11%
    07:00 +27°C° 0 mm 2 mps 718 mmHg 10%
    08:00 +29°C° 0 mm 2 mps 719 mmHg 9%
    09:00 +31°C° 0 mm 2 mps 719 mmHg 8%
    10:00 +34°C° 0 mm 2 mps 719 mmHg 8%
    11:00 +37°C° 0 mm 2 mps 719 mmHg 7%
    12:00 +39°C° 0 mm 2 mps 718 mmHg 6%
    13:00 +39°C° 0 mm 2 mps 718 mmHg 7%
    14:00 +40°C° 0 mm 2 mps 717 mmHg 7%
    15:00 +40°C° 0 mm 1 mps 716 mmHg 7%
    16:00 +37°C° 0 mm 1 mps 716 mmHg 8%
    17:00 +35°C° 0 mm 1 mps 716 mmHg 9%
    18:00 +33°C° 0 mm 1 mps 716 mmHg 10%
    19:00 +32°C° 0 mm 1 mps 716 mmHg 11%
    20:00 +31°C° 0 mm 1 mps 717 mmHg 11%
    21:00 +30°C° 0 mm 1 mps 717 mmHg 12%
    22:00 +29°C° 0 mm 1 mps 717 mmHg 12%
    23:00 +29°C° 0 mm 1 mps 717 mmHg 12%

    23 January, Wednesday

    Time Temperature Precipitation Wind Pressure Humidity
    00:00 +28°C° 0 mm 1 mps 717 mmHg 12%
    01:00 +28°C° 0 mm 1 mps 716 mmHg 13%
    02:00 +27°C° 0 mm 2 mps 716 mmHg 13%
    03:00 +26°C° 0 mm 2 mps 716 mmHg 14%
    04:00 +26°C° 0 mm 2 mps 716 mmHg 13%
    05:00 +26°C° 0 mm 2 mps 716 mmHg 13%
    06:00 +25°C° 0 mm 2 mps 717 mmHg 12%
    07:00 +27°C° 0 mm 2 mps 717 mmHg 11%
    08:00 +29°C° 0 mm 2 mps 718 mmHg 10%
    09:00 +32°C° 0 mm 2 mps 719 mmHg 9%
    10:00 +34°C° 0 mm 1 mps 719 mmHg 8%
    11:00 +36°C° 0 mm 1 mps 718 mmHg 7%
    12:00 +40°C° 0 mm 1 mps 718 mmHg 6%
    13:00 +40°C° 0 mm 1 mps 717 mmHg 6%
    14:00 +41°C° 0 mm 1 mps 717 mmHg 6%
    15:00 +38°C° 0 mm 0 mps 716 mmHg 6%
    16:00 +39°C° 0 mm 1 mps 716 mmHg 7%
    17:00 +35°C° 0 mm 1 mps 716 mmHg 8%
    18:00 +33°C° 0 mm 1 mps 716 mmHg 9%
    19:00 +32°C° 0 mm 1 mps 716 mmHg 9%
    20:00 +31°C° 0 mm 1 mps 716 mmHg 9%
    21:00 +30°C° 0 mm 1 mps 717 mmHg 10%
    22:00 +29°C° 0 mm 1 mps 717 mmHg 10%
    23:00 +28°C° 0 mm 2 mps 716 mmHg 10%
    Show more